Regional Weather Roundup
Issued by NWS San Angelo, TX

Home | Current Version | Previous Version | Text Only | Print | Product List | Glossary On
Versions: 1 2 3 4 5 6 7 8 9 10 11 12 13 14 15 16 17 18 19 20 21 22 23 24 25 26 27 28 29 30 31 32 33 34 35 36 37 38 39 40 41 42 43 44 45 46 47 48 49 50
000
ASUS44 KSJT 191310
RWRSJT
WEST CENTRAL TEXAS REGIONAL WEATHER ROUNDUP
NATIONAL WEATHER SERVICE SAN ANGELO TX
700 AM CST FRI JAN 19 2018

NOTE: "FAIR" INDICATES FEW OR NO CLOUDS BELOW 12,000 FEET WITH NO
SIGNIFICANT WEATHER AND/OR OBSTRUCTIONS TO VISIBILITY.

TXZ049-054-064>066-071>073-076>078-098-099-113-114-127-128-139-140-
154-155-168>170-191400
...LOCATIONS ACROSS WEST CENTRAL TEXAS...

CITY           SKY/WX    TMP DP  RH WIND       PRES   REMARKS
SAN ANGELO     CLOUDY    28  21  75 W3        30.16S
ABILENE        CLOUDY    32  24  72 SW12      30.12S WCI  23
DYESS AFB      CLOUDY    35  23  61 S12G20    30.12R WCI  27
JUNCTION       CLOUDY    42  39  89 S5        30.19S WCI  39
SWEETWATER     CLEAR     31  21  68 SW10      30.12R WCI  22
BROWNWOOD      CLOUDY    34  30  86 CALM      30.19S
COLEMAN        CLOUDY    32  27  81 SW8       30.16F WCI  25
SONORA         CLOUDY    25  23  93 CALM      30.22F
OZONA          FAIR      23  21  93 SW5       30.19F WCI  17
BRADY          NOT AVBL
$$

TEXAS PANHANDLE/OKLAHOMA PANHANDLE

CITY           SKY/WX    TMP DP  RH WIND       PRES   REMARKS
AMARILLO       CLOUDY    32  13  45 SW12      29.95F WCI  23
BORGER         CLOUDY    32  13  45 SW7       29.94S WCI  26
CANADIAN       CLOUDY    21  13  71 CALM      29.96S
DALHART        MOCLDY    17   8  67 SW6       29.92F WCI   9
DUMAS          CLOUDY    30  11  45 SW15      29.91F WCI  19
GUYMON         NOT AVBL
HEREFORD       CLOUDY    24  13  64 MISG      29.97F
PAMPA          CLOUDY    28  12  52 SW9       29.95S WCI  19
PERRYTON       CLOUDY    31  14  49 SW7       29.90S WCI  24
$$

SOUTHERN PANHANDLE/SOUTH PLAINS/ROLLING PLAINS

CITY           SKY/WX    TMP DP  RH WIND       PRES   REMARKS
LUBBOCK        CLOUDY    25  14  63 SW9       30.01F WCI  15
SNYDER         CLEAR     21  15  77 SW8       30.10S WCI  11
CHILDRESS      CLOUDY    26  16  65 S10       30.02S WCI  16
SEMINOLE       SUNNY     20  13  76 SW7       30.07R WCI  11
$$

PERMIAN BASIN

CITY           SKY/WX    TMP DP  RH WIND       PRES   REMARKS
MIDLAND        CLOUDY    27  17  66 S6        30.09S WCI  20
ODESSA         CLOUDY    25  17  72 SW7       30.09S WCI  17
WINK           CLOUDY    20  15  81 SE5       30.09S WCI  13
$$

FAR WEST/SOUTHWEST MOUNTAINS/TRANS PECOS

CITY           SKY/WX    TMP DP  RH WIND       PRES   REMARKS
ALPINE         CLOUDY    41  20  44 S6        30.20R WCI  37
DRYDEN           N/A    N/A N/A N/A NW3       30.16S
EL PASO        MOCLDY    27  15  61 CALM      30.15S
FORT STOCKTON  CLOUDY    40  20  44 SW14      30.09S WCI  32
GUADALUPE PASS PTCLDY    33  14  45 W22       30.12R WCI  21
MARFA          CLEAR     20  14  77 E3        30.19S
PECOS          CLOUDY    18  10  70 CALM      30.12R
$$

DALLAS/FORT WORTH METROPLEX

CITY           SKY/WX    TMP DP  RH WIND       PRES   REMARKS
DFW AIRPORT    MOCLDY    42  22  44 S14       30.19F WCI  35
FTW MEACHAM    PTCLDY    36  23  59 SE7       30.19F WCI  30
DAL-EXECUTIVE  CLOUDY    39  22  50 S10       30.21S WCI  32
GRAND PRAIRIE  CLOUDY    40  21  47 S6        30.23S WCI  35
ADDISON        CLOUDY    39  21  48 S8        30.21F WCI  34
MESQUITE       CLOUDY    37  19  48 SE9       30.34R WCI  31
LANCASTER      CLOUDY    38  21  49 S9        30.25F WCI  31
$$

NORTH CENTRAL TEXAS

CITY           SKY/WX    TMP DP  RH WIND       PRES   REMARKS
SHRMAN/DENISON CLOUDY    32  23  70 S9        30.20S WCI  24
GAINESVILLE    CLOUDY    26  18  71 CALM      30.20S
BRIDGEPORT     CLOUDY    22  18  83 CALM      30.19S
DENTON         CLOUDY    32  23  69 S8        30.19S WCI  25
WAXAHACHIE     CLOUDY    37  24  58 S8        30.25S WCI  31
GRANBURY       CLOUDY    39  24  55 SE8       30.21F WCI  34
$$

WESTERN NORTH TEXAS

CITY           SKY/WX    TMP DP  RH WIND       PRES   REMARKS
WICHITA FALLS  CLOUDY    28  23  81 S12       30.12R WCI  18
VERNON         CLOUDY    27  14  58 S8        30.09R WCI  19
BRECKENRIDGE   SUNNY     37  28  69 S10G17    30.13S WCI  29
COMANCHE       CLOUDY    44  39  83 SW10      30.17S WCI  39
$$

CENTRAL AND SOUTH CENTRAL TEXAS

CITY           SKY/WX    TMP DP  RH WIND       PRES   REMARKS
AUSTIN/BERGSTM CLOUDY    41  28  60 CALM      30.27S
WACO           CLOUDY    40  24  53 S8        30.26F WCI  34
HILLSBORO      NOT AVBL
TEMPLE         CLOUDY    38  25  59 S9        30.26S WCI  31
KILLEEN-GRAY   CLOUDY    39  24  53 SE7       30.22F WCI  34
FORT HOOD      CLOUDY    40  22  50 S6        30.20F WCI  35
GEORGETOWN     CLOUDY    40  25  55 S7        30.28S WCI  35
LAGO VISTA     DRIZZLE   40  31  71 MISG      30.25R
SAN MARCOS     CLOUDY    41  28  60 CALM      30.27F
NEW BRAUNFELS  CLOUDY    42  32  67 CALM      30.25F
RANDOLPH AFB   CLOUDY    41  34  77 CALM      30.25S
SAN ANTONIO    LGT RAIN  39  37  92 CALM      30.25F FOG
STINSON        CLOUDY    42  36  79 CALM      30.25S
PLEASANTON     NOT AVBL
LA GRANGE      NOT AVBL
GIDDINGS       CLOUDY   N/A N/A N/A CALM      30.29S
$$

EAST TEXAS

CITY           SKY/WX    TMP DP  RH WIND       PRES   REMARKS
PARIS          CLOUDY    37  20  50 S5        30.24S WCI  33
CLARKSVILLE    NOT AVBL
TYLER          CLOUDY    39  14  36 S8        30.27F WCI  33
LONGVIEW       CLOUDY    39  21  48 S7        30.29S WCI  34
PALESTINE      CLOUDY    38  16  40 SE3       30.31S
NACOGDOCHES    CLOUDY    38  22  52 CALM      30.32S
$$

TEXAS HILL COUNTRY AND EDWARDS PLATEAU

CITY           SKY/WX    TMP DP  RH WIND       PRES   REMARKS
LLANO          CLOUDY    43  32  65 SE3       30.25F
HORSESHOE BAY  CLOUDY    42  32  69 CALM      30.25S
KERRVILLE      CLOUDY    38  37  92 CALM      30.22S FOG
FREDERICKSBRG  CLOUDY    38  37  94 CALM      30.23R FOG
ROCKSPRINGS      N/A     37  37 100 S6        30.23S WCI  33
HONDO          CLOUDY    41  38  89 N3        30.25F FOG
UVALDE         CLOUDY    37  37  99 CALM      30.25F FOG
DEL RIO        CLOUDY    29  27  92 CALM      30.23S
$$

SOUTHEAST TEXAS

CITY           SKY/WX    TMP DP  RH WIND       PRES   REMARKS
COLLEGE STN    CLOUDY    38  24  57 CALM      30.30S
CALDWELL       CLOUDY    37  25  60 CALM      30.30S
CROCKETT       CLOUDY    37  16  41 S3        30.33F
BRENHAM        CLOUDY    39  28  63 CALM      30.30S
HUNTSVILLE     CLOUDY    39  24  55 CALM      30.29F
CONROE         CLOUDY    37  25  61 CALM      30.31S
HOUSTON BUSH   CLOUDY    39  28  64 E7        30.30F WCI  34
HOUSTON HOBBY  MOCLDY    41  32  70 NE9       30.29F WCI  35
PERLAND        MOCLDY    40  32  73 NE9       30.30F WCI  34
WHARTON        LGT RAIN  39  34  81 NE6       30.28S WCI  35
$$

THE UPPER TEXAS COAST

CITY           SKY/WX    TMP DP  RH WIND       PRES   REMARKS
ORANGE         CLOUDY    39  31  72 E5        30.35F WCI  36
PORT ARTHUR    CLOUDY    40  29  64 NE7       30.32F WCI  35
GALVESTON      CLOUDY    42  38  85 N8        30.30F WCI  37
ANGLETON       LGT RAIN  41  36  82 NE7       30.27F WCI  36
BAY CITY       CLOUDY    41  39  95 N7        30.29R WCI  36
$$

TEXAS COASTAL BEND, RIO GRANDE PLAINS DEEP SOUTH TEXAS

CITY           SKY/WX    TMP DP  RH WIND       PRES   REMARKS
VICTORIA       CLOUDY    40  37  89 N8        30.27R WCI  34
BEEVILLE       DRIZZLE   39  39 100 N7        30.26R WCI  34
ROCKPORT       CLOUDY    45  40  82 N7        30.22F
PORT ARANSAS   NOT AVBL
PORT LAVACA    CLOUDY    40  38  89 NE12      30.25S WCI  34
CORPUS CHRISTI DRIZZLE   41  39  93 N12       30.23S FOG     WCI  34
KINGSVILLE NAS LGT RAIN  41  40  96 N9        30.24R FOG     WCI  35
COTULLA        CLOUDY    38  37  97 N3        30.27S FOG
LAREDO         CLOUDY    39  36  89 NE5       30.26S WCI  36
BROWNSVILLE    CLOUDY    43  41  93 NW12      30.23S WCI  37
PORT ISABEL    CLOUDY    41  40  96 W10       30.22R FOG     WCI  35
HEBBRONVILLE   CLOUDY    38  37  97 N7        30.25R FOG     WCI  32
MCALLEN        CLOUDY    43  40  89 NW8       30.25S WCI  38
WESLACO        CLOUDY    40  39  96 NW9       30.24S FOG     WCI  34
FALFURRIAS     CLOUDY    41  39  93 NW6       30.24S WCI  37
EDINBURG       DRIZZLE   42  40  94 NW7       30.25S WCI  38
$$




USA.gov is the U.S. government's official web portal to all federal, state and local government web resources and services.